| time (UTC) | temp C | wind direction | speed KPH | gust KPH | rain 1hr cm | rain 24hr cm | rain mn cm | humidity % | barometer mb |
| 20260503031051 | 11 | 214 | 4.8 | 9.7 | 0.00 | 0.00 | 0.10 | 66 | |
| 20260503030411 | 11 | 185 | 6.4 | 9.7 | 0.00 | 0.00 | 0.10 | 64 | |
| 20260503025731 | 11 | 181 | 4.8 | 6.4 | 0.00 | 0.00 | 0.10 | 67 | |
| 20260503025051 | 11 | 146 | 1.6 | 3.2 | 0.00 | 0.00 | 0.10 | 69 | |
| 20260503024411 | 11 | 299 | 1.6 | 3.2 | 0.00 | 0.00 | 0.10 | 69 | |
| 20260503023732 | 11 | 271 | 1.6 | 12.9 | 0.00 | 0.00 | 0.10 | 57 | |
| 20260503023052 | 11 | 179 | 3.2 | 17.7 | 0.00 | 0.00 | 0.10 | 67 | |
| 20260503021732 | 13 | 253 | 14.5 | 24.1 | 0.00 | 0.00 | 0.03 | 57 | |
| 20260503021051 | 13 | 227 | 4.8 | 8.0 | 0.00 | 0.00 | 0.00 | 49 | |
| 20260503020411 | 13 | 168 | 4.8 | 8.0 | 0.00 | 0.00 | 0.00 | 47 | |
| 20260503015731 | 13 | 104 | 4.8 | 12.9 | 0.00 | 0.00 | 0.00 | 47 | |
| 20260503015052 | 13 | 141 | 6.4 | 16.1 | 0.00 | 0.00 | 0.00 | 47 | |
| 20260503013732 | 15 | 161 | 3.2 | 8.0 | 0.00 | 0.00 | 0.00 | 47 | |
| 20260503012411 | 14 | 53 | 4.8 | 12.9 | 0.00 | 0.00 | 0.00 | 43 | |
| 20260503011731 | 14 | 70 | 4.8 | 12.9 | 0.00 | 0.00 | 0.00 | 44 | |
| 20260503011051 | 15 | 75 | 4.8 | 9.7 | 0.00 | 0.00 | 0.00 | 42 | |
| 20260503010411 | 15 | 347 | 4.8 | 17.7 | 0.00 | 0.00 | 0.00 | 36 | |
| 20260503005731 | 15 | 325 | 12.9 | 24.1 | 0.00 | 0.00 | 0.00 | 37 | |
| 20260503005052 | 14 | 9 | 12.9 | 22.5 | 0.00 | 0.00 | 0.00 | 41 | |
| 20260503004411 | 14 | 359 | 11.3 | 35.4 | 0.00 | 0.00 | 0.00 | 45 | |
| 20260503003731 | 15 | 354 | 19.3 | 46.7 | 0.00 | 0.00 | 0.00 | 43 | |
| 20260503003051 | 16 | 324 | 25.7 | 38.6 | 0.00 | 0.00 | 0.00 | 36 | |
| 20260503002411 | 17 | 339 | 20.9 | 32.2 | 0.00 | 0.00 | 0.00 | 26 | |
| 20260503001731 | 18 | 341 | 4.8 | 6.4 | 0.00 | 0.00 | 0.00 | 24 | |
| 20260503001051 | 18 | 100 | 1.6 | 6.4 | 0.00 | 0.00 | 0.00 | 23 | |
| 20260502235731 | 18 | 88 | 3.2 | 8.0 | 0.00 | 0.00 | 0.00 | 23 | |
| 20260502234411 | 18 | 146 | 6.4 | 9.7 | 0.00 | 0.00 | 0.00 | 23 | |
| 20260502233731 | 18 | 140 | 6.4 | 8.0 | 0.00 | 0.00 | 0.00 | 23 | |
| 20260502233051 | 18 | 162 | 6.4 | 11.3 | 0.00 | 0.00 | 0.00 | 24 | |
| 20260502232411 | 18 | 227 | 4.8 | 12.9 | 0.00 | 0.00 | 0.00 | 25 | |
| 20260502231731 | 19 | 209 | 6.4 | 16.1 | 0.00 | 0.00 | 0.00 | 22 | |
| 20260502230411 | 20 | 246 | 8.0 | 14.5 | 0.00 | 0.00 | 0.00 | 21 | |
| 20260502225731 | 20 | 145 | 4.8 | 11.3 | 0.00 | 0.00 | 0.00 | 20 | |
| 20260502225051 | 21 | 226 | 6.4 | 12.9 | 0.00 | 0.00 | 0.00 | 21 | |
| 20260502224411 | 21 | 339 | 4.8 | 11.3 | 0.00 | 0.00 | 0.00 | 20 | |
| 20260502223731 | 20 | 179 | 4.8 | 11.3 | 0.00 | 0.00 | 0.00 | 21 | |
| 20260502223051 | 20 | 214 | 3.2 | 14.5 | 0.00 | 0.00 | 0.00 | 21 | |
| 20260502220411 | 20 | 235 | 6.4 | 12.9 | 0.00 | 0.00 | 0.00 | 22 | |
| 20260502215731 | 19 | 217 | 4.8 | 12.9 | 0.00 | 0.00 | 0.00 | 22 | |
| 20260502214411 | 19 | 180 | 3.2 | 11.3 | 0.00 | 0.00 | 0.00 | 23 | |
| 20260502213052 | 19 | 185 | 8.0 | 17.7 | 0.00 | 0.00 | 0.00 | 24 | |
| 20260502212411 | 19 | 226 | 4.8 | 14.5 | 0.00 | 0.00 | 0.00 | 25 | |
| 20260502211731 | 19 | 205 | 4.8 | 14.5 | 0.00 | 0.00 | 0.00 | 24 | |
| 20260502211051 | 19 | 217 | 1.6 | 11.3 | 0.00 | 0.00 | 0.00 | 24 | |
| 20260502205731 | 18 | 124 | 6.4 | 12.9 | 0.00 | 0.00 | 0.00 | 26 | |
| 20260502205051 | 18 | 136 | 4.8 | 11.3 | 0.00 | 0.00 | 0.00 | 26 | |
| 20260502204411 | 18 | 143 | 6.4 | 11.3 | 0.00 | 0.00 | 0.00 | 26 | |
| 20260502203731 | 18 | 212 | 6.4 | 12.9 | 0.00 | 0.00 | 0.00 | 25 | |
| 20260502203051 | 18 | 235 | 6.4 | 17.7 | 0.00 | 0.00 | 0.00 | 28 | |
| 20260502202411 | 18 | 227 | 8.0 | 11.3 | 0.00 | 0.00 | 0.00 | 26 | |
| 20260502201731 | 18 | 262 | 4.8 | 11.3 | 0.00 | 0.00 | 0.00 | 26 | |
| 20260502201051 | 18 | 123 | 4.8 | 12.9 | 0.00 | 0.00 | 0.00 | 26 | |
| 20260502195731 | 18 | 222 | 3.2 | 12.9 | 0.00 | 0.00 | 0.00 | 26 | |
| 20260502195051 | 18 | 190 | 6.4 | 17.7 | 0.00 | 0.00 | 0.00 | 28 | |
| 20260502194411 | 17 | 194 | 11.3 | 17.7 | 0.00 | 0.00 | 0.00 | 27 | |
| 20260502193731 | 18 | 184 | 6.4 | 16.1 | 0.00 | 0.00 | 0.00 | 27 | |
| 20260502192411 | 18 | 202 | 8.0 | 12.9 | 0.00 | 0.00 | 0.00 | 27 | |
| 20260502191733 | 18 | 232 | 4.8 | 14.5 | 0.00 | 0.00 | 0.00 | 28 | |
| 20260502191051 | 17 | 147 | 6.4 | 16.1 | 0.00 | 0.00 | 0.00 | 29 | |
| 20260502190411 | 17 | 215 | 8.0 | 16.1 | 0.00 | 0.00 | 0.00 | 29 | |
| 20260502185731 | 17 | 203 | 8.0 | 12.9 | 0.00 | 0.00 | 0.00 | 30 | |
| 20260502185052 | 17 | 262 | 6.4 | 12.9 | 0.00 | 0.00 | 0.00 | 29 | |
| 20260502184411 | 17 | 182 | 6.4 | 14.5 | 0.00 | 0.00 | 0.00 | 29 | |
| 20260502183731 | 17 | 227 | 8.0 | 16.1 | 0.00 | 0.00 | 0.00 | 30 | |
| 20260502183052 | 17 | 210 | 6.4 | 14.5 | 0.00 | 0.00 | 0.00 | 30 | |
| 20260502182411 | 17 | 235 | 9.7 | 14.5 | 0.00 | 0.00 | 0.00 | 30 | |
| 20260502181731 | 17 | 216 | 8.0 | 14.5 | 0.00 | 0.00 | 0.00 | 31 | |
| 20260502181051 | 17 | 151 | 6.4 | 12.9 | 0.00 | 0.00 | 0.00 | 29 | |
| 20260502180411 | 17 | 191 | 8.0 | 12.9 | 0.00 | 0.00 | 0.00 | 29 | |
| 20260502163731 | 15 | 351 | 6.4 | 11.3 | 0.00 | 0.00 | 0.00 | 33 | |
| 20260502163051 | 15 | 187 | 3.2 | 6.4 | 0.00 | 0.00 | 0.00 | 34 | |
| 20260502161731 | 14 | 328 | 3.2 | 9.7 | 0.00 | 0.00 | 0.00 | 36 | |
| 20260502161052 | 14 | 20 | 6.4 | 9.7 | 0.00 | 0.00 | 0.00 | 36 | |
| 20260502160411 | 13 | 325 | 3.2 | 8.0 | 0.00 | 0.00 | 0.00 | 37 | |
| 20260502151732 | 12 | 311 | 8.0 | 16.1 | 0.00 | 0.00 | 0.00 | 43 | |
| 20260502151051 | 12 | 319 | 9.7 | 16.1 | 0.00 | 0.00 | 0.00 | 44 | |
| 20260502150411 | 11 | 322 | 9.7 | 16.1 | 0.00 | 0.00 | 0.00 | 45 | |
| 20260502130411 | 6 | 293 | 4.8 | 8.0 | 0.00 | 0.00 | 0.00 | 64 | |
| 20260502123731 | 6 | 240 | 6.4 | 9.7 | 0.00 | 0.00 | 0.00 | 63 | |
| 20260502123051 | 7 | 265 | 3.2 | 11.3 | 0.00 | 0.00 | 0.00 | 60 | |
| 20260502121051 | 7 | 308 | 8.0 | 14.5 | 0.00 | 0.00 | 0.00 | 59 | |
| 20260502120411 | 7 | 283 | 4.8 | 14.5 | 0.00 | 0.00 | 0.00 | 60 | |
| 20260502115731 | 7 | 292 | 8.0 | 17.7 | 0.00 | 0.00 | 0.00 | 60 | |
| 20260502115051 | 6 | 278 | 6.4 | 12.9 | 0.00 | 0.00 | 0.00 | 62 | |
| 20260502114411 | 7 | 259 | 6.4 | 11.3 | 0.00 | 0.00 | 0.00 | 62 | |
| 20260502113731 | 7 | 261 | 6.4 | 14.5 | 0.00 | 0.00 | 0.00 | 61 | |
| 20260502113051 | 7 | 266 | 6.4 | 17.7 | 0.00 | 0.00 | 0.00 | 60 | |
| 20260502112411 | 7 | 278 | 6.4 | 17.7 | 0.00 | 0.00 | 0.00 | 60 | |
| 20260502111731 | 7 | 294 | 8.0 | 24.1 | 0.00 | 0.00 | 0.00 | 59 | |
| 20260502111051 | 8 | 304 | 11.3 | 24.1 | 0.00 | 0.00 | 0.00 | 57 | |
| 20260502110411 | 8 | 297 | 11.3 | 19.3 | 0.00 | 0.00 | 0.00 | 56 | |
| 20260502105731 | 8 | 297 | 9.7 | 14.5 | 0.00 | 0.00 | 0.00 | 55 | |
| 20260502104411 | 8 | 317 | 9.7 | 16.1 | 0.00 | 0.00 | 0.00 | 54 | |
| 20260502103731 | 7 | 313 | 9.7 | 16.1 | 0.00 | 0.00 | 0.00 | 53 | |
| 20260502103050 | 8 | 266 | 4.8 | 12.9 | 0.00 | 0.00 | 0.00 | 54 | |
| 20260502102410 | 7 | 280 | 6.4 | 14.5 | 0.00 | 0.00 | 0.00 | 54 | |
| 20260502101050 | 8 | 279 | 8.0 | 17.7 | 0.00 | 0.00 | 0.00 | 54 | |
| 20260502100410 | 8 | 267 | 9.7 | 17.7 | 0.00 | 0.00 | 0.00 | 54 | |
| 20260502091050 | 8 | 299 | 8.0 | 17.7 | 0.00 | 0.00 | 0.00 | 47 | |
| 20260502090412 | 8 | 282 | 6.4 | 12.9 | 0.00 | 0.00 | 0.00 | 46 | |
| 20260502071050 | 9 | 223 | 4.8 | 6.4 | 0.00 | 0.00 | 0.00 | 48 | |
| 20260502070410 | 9 | 217 | 3.2 | 3.2 | 0.00 | 0.00 | 0.00 | 46 | |
| 20260502065731 | 9 | 270 | 1.6 | 4.8 | 0.00 | 0.00 | 0.00 | 44 | |
| 20260502065050 | 9 | 253 | 3.2 | 8.0 | 0.00 | 0.00 | 0.00 | 44 | |
| 20260502064410 | 8 | 255 | 4.8 | 8.0 | 0.00 | 0.00 | 0.00 | 45 | |
| 20260502063730 | 8 | 270 | 1.6 | 6.4 | 0.00 | 0.00 | 0.00 | 44 | |
| 20260502063051 | 8 | 224 | 3.2 | 4.8 | 0.00 | 0.00 | 0.00 | 45 | |
| 20260502062410 | 8 | 308 | 1.6 | 12.9 | 0.00 | 0.00 | 0.00 | 44 | |
| 20260502061050 | 10 | 310 | 4.8 | 11.3 | 0.00 | 0.00 | 0.00 | 44 | |
| 20260502060410 | 10 | 230 | 9.7 | 14.5 | 0.00 | 0.00 | 0.00 | 43 | |
| 20260502055730 | 10 | 234 | 9.7 | 14.5 | 0.00 | 0.00 | 0.00 | 43 | |
| 20260502055051 | 10 | 232 | 9.7 | 14.5 | 0.00 | 0.00 | 0.00 | 42 | |
| 20260502054410 | 10 | 230 | 9.7 | 14.5 | 0.00 | 0.00 | 0.00 | 42 | |
| 20260502053730 | 10 | 234 | 11.3 | 14.5 | 0.00 | 0.00 | 0.00 | 41 | |
| 20260502053050 | 10 | 233 | 8.0 | 12.9 | 0.00 | 0.00 | 0.00 | 41 | |
| 20260502052410 | 10 | 235 | 8.0 | 11.3 | 0.00 | 0.00 | 0.00 | 40 | |
| 20260502051050 | 10 | 233 | 6.4 | 14.5 | 0.00 | 0.00 | 0.00 | 39 | |
| 20260502050410 | 10 | 240 | 8.0 | 14.5 | 0.00 | 0.00 | 0.00 | 38 | |
| 20260502045731 | 10 | 234 | 8.0 | 14.5 | 0.00 | 0.00 | 0.00 | 41 | |
| 20260502045050 | 10 | 253 | 6.4 | 9.7 | 0.00 | 0.00 | 0.00 | 43 | |
| 20260502044410 | 10 | 234 | 6.4 | 11.3 | 0.00 | 0.00 | 0.00 | 40 | |
| 20260502043729 | 11 | 233 | 8.0 | 11.3 | 0.00 | 0.00 | 0.00 | 38 | |
| 20260502043050 | 10 | 231 | 8.0 | 11.3 | 0.00 | 0.00 | 0.00 | 42 | |
| 20260502042409 | 11 | 243 | 4.8 | 12.9 | 0.00 | 0.00 | 0.00 | 41 | |
| 20260502041730 | 11 | 241 | 6.4 | 11.3 | 0.00 | 0.00 | 0.00 | 42 | |
| 20260502041049 | 11 | 234 | 6.4 | 11.3 | 0.00 | 0.00 | 0.00 | 40 | |
| 20260502040409 | 11 | 237 | 8.0 | 12.9 | 0.00 | 0.00 | 0.00 | 38 | |
| 20260502035729 | 11 | 236 | 6.4 | 11.3 | 0.00 | 0.00 | 0.00 | 39 | |
| 20260502035049 | 11 | 232 | 6.4 | 12.9 | 0.00 | 0.00 | 0.00 | 38 | |
| 20260502034409 | 11 | 234 | 6.4 | 11.3 | 0.00 | 0.00 | 0.00 | 37 | |
| 20260502033729 | 11 | 230 | 8.0 | 11.3 | 0.00 | 0.00 | 0.00 | 37 | |
| 20260502032409 | 12 | 230 | 6.4 | 11.3 | 0.00 | 0.00 | 0.00 | 32 | |
| 20260502031729 | 12 | 231 | 6.4 | 11.3 | 0.00 | 0.00 | 0.00 | 31 |